Meteo Giornale » Osservazioni meteo Italia » Bologna-Borgo Panigale

ore: 07:50 - Osservazioni Meteo Bologna-Borgo Panigale
Lat. 44° 32' N Lon. 11° 18' E Alt. 36 metri s.l.m.

sereno Europe/Rome

12 °C

Sereno

Temp. 24 Ore

8 °C

20 °C

Nord

1.8 Km/h

Dew point 8 °C

Umidità 76 %

Visibilità  10 Km

Il sole sorge alle ore 06:11

Il sole tramonta alle ore 20:13

Data e Ora Cielo e Fenomeni T °C DP °C Um. % Pres. hPa Vis. km Vento km/h
Oggi h: 07:50 sereno Sereno 12 8 76 1014 10 N 1.8
Oggi h: 07:20 sereno Sereno 10 7 81 1014 10 N 1.8
Oggi h: 06:50 sereno Sereno 8 5 81 1014 10 N 0
Oggi h: 06:20 sereno Sereno 9 5 75 1014 10 N 5.5
Oggi h: 05:50 sereno Sereno 11 6 71 1014 10 N 3.7
Oggi h: 05:20 sereno Sereno 9 7 87 1014 10 N 0
Oggi h: 04:20 sereno Sereno 10 9 93 1015 10 O/NO 9.3
Oggi h: 03:50 sereno Sereno 10 7 81 1015 10 N 5.5
Oggi h: 03:20 sereno Sereno 10 6 76 1015 10 N 5.5
Oggi h: 02:50 sereno Sereno 12 7 71 1015 10 N 5.5
Oggi h: 02:20 sereno Sereno 11 7 76 1015 10 N 0
Oggi h: 01:50 nuvoloso Nuvoloso 12 9 81 1016 10 N 5.5
Oggi h: 01:20 nuvoloso Nuvoloso 13 10 81 1016 10 N 1.8
Oggi h: 00:50 nuvoloso Nuvoloso 13 10 81 1016 10 N 1.8
Oggi h: 00:20 nuvoloso Nuvoloso 13 10 81 1016 10 N 3.7
Ieri h: 23:50 nuvoloso Nuvoloso 14 10 76 1017 10 N 3.7
Ieri h: 23:20 nuvoloso Nuvoloso 14 10 76 1017 10 N 3.7
Ieri h: 22:50 nuvoloso Nuvoloso 14 9 71 1017 10 N 5.5
Ieri h: 22:20 nuvoloso Nuvoloso 14 10 76 1017 10 E 9.3
Ieri h: 21:50 nuvoloso Nuvoloso 15 10 72 1017 10 E 9.3
Ieri h: 21:20 nuvoloso Nuvoloso 15 11 76 1017 10 E/NE 7.4
Ieri h: 20:50 nuvoloso Nuvoloso 16 11 72 1017 10 E/NE 7.4
Ieri h: 20:20 nuvoloso Nuvoloso 17 11 67 1017 10 E/NE 7.4
Ieri h: 19:50 molto_nuvoloso Molto Nuvoloso 17 12 72 1016 10 E/NE 11.1
Ieri h: 19:20 molto_nuvoloso Molto Nuvoloso 18 11 63 1017 10 NE 9.3
Ieri h: 18:50 molto_nuvoloso Molto Nuvoloso 18 11 63 1017 10 N/NE 9.3
Ieri h: 17:50 molto_nuvoloso Molto Nuvoloso 19 11 59 1017 10 N 9.3
Ieri h: 17:20 molto_nuvoloso Molto Nuvoloso 20 10 52 1017 10 N/NE 9.3
Ieri h: 16:50 nuvoloso Nuvoloso 19 10 55 1017 10 N 7.4
Ieri h: 16:20 nuvoloso Nuvoloso 19 10 55 1018 10 N/NE 7.4
Ieri h: 15:20 nuvoloso Nuvoloso 20 11 56 1018 10 N 9.3
Ieri h: 14:50 nuvoloso Nuvoloso 19 10 55 1018 10 N 7.4
Ieri h: 14:20 nuvoloso Nuvoloso 19 11 59 1019 10 N 9.3
Ieri h: 13:50 nuvoloso Nuvoloso 19 10 55 1019 10 N 7.4
Ieri h: 13:20 poco_nuvoloso Poco Nuvoloso 19 12 63 1019 10 E/NE 7.4
Ieri h: 12:50 nuvoloso Nuvoloso 18 10 59 1020 10 N/NE 7.4
Ieri h: 12:20 nuvoloso Nuvoloso 17 10 63 1020 9 N 7.4
Ieri h: 11:50 nuvoloso Nuvoloso 17 11 67 1020 9 NO 7.4
Ieri h: 11:20 nuvoloso Nuvoloso 17 10 63 1020 8 N 5.5
Ieri h: 10:50 nuvoloso Nuvoloso 16 10 67 1020 8 N 5.5
Ieri h: 10:20 nuvoloso Nuvoloso 15 11 76 1020 8 N/NO 7.4
Ieri h: 09:50 nuvoloso Nuvoloso 15 10 72 1020 8 O/NO 9.3
Ieri h: 09:20 poco_nuvoloso Poco Nuvoloso 15 10 72 1020 8 N 3.7
Ieri h: 08:50 nuvoloso Nuvoloso 14 10 76 1020 8 N 5.5